Showing default

COSMOS 2237, 22565

Orbit data source: Space-Track

COSMOS 2237, 22565 is a payload satellite owned by GRU (CIS) in LEO that was launched on Fri, 26 Mar 1993 UTC via a ZENIT-2 launch vehicle from the Tyuratam Missile And Space Complex (TTMTR). Payload-class satellites include a variety of spacecraft equipped with specific instruments for various scientific and technological missions. These include communications satellites like Starlink; space stations such as the ISS; scientific satellites like the Hubble; Earth observation satellites from companies like Planet Labs, Umbra, and HawkEye 360; GPS; miniature CubeSats for education and research; and military/defense satellites.

Loading next visibility...
Identifier
22565, 1993-016A
Orbit
LEO
Last TLE update
6 hours ago
Origin
Manufacturer
Yuzhnoe
Mission
Defense Sigint
Bus & Motor
TSELINA-2, Unknown motor
Mass
3,250 kg wet, 3,250 kg dry
Launch date (UTC)
1993-03-26 (32 years ago)
Launch vehicle
ZENIT-2
Launch site
Tyuratam Missile And Space Complex (TTMTR)
Object type
Payload
Rocket body
Debris
Shape & HBR
Unknown shape, 19 m
Radar Cross Section
Large (>1 m²)

Expand to show TLE details & history

TLE from 6 hours ago
0 COSMOS 2237
1 22565U 93016A   25181.85650913 -.00000296  00000-0 -13394-3 0  9995
2 22565  70.7880 336.0573 0005014  47.7022 312.4522 14.12454227664019
Epoch: 2025-06-30T20:33Z
TLE epoch observation values (Epoch: 2025-06-30T20:33:22.388Z)
Latitude
-0.00005°
Longitude
108.55369°
Altitude
850.923 km
Speed
7.429 km/s
True Right ascension
22h 24m 13s
True Declination
0° 00' 00"
Sunlit
Object was in full shadow at epoch
Visualization orbit readout
Latitude
-37.75613°
Longitude
-56.4143°
Altitude
868.379 km
Speed
7.415 km/s
Apparent Right ascension
07h 36m 05s
Apparent Declination
-64° 37' 14"
Sunlit
Object is in daylight
Visualization observer readout
Local Sidereal Time
14:18:48
Azimuth
213.267° SW
Elevation
-39.84°
Doppler factor
1
Orbital elements
Apogee altitude
852.557 km
Perigee altitude
845.31 km
Semi-major axis
7,227.071 km
Eccentricity
0.0005
Inclination
70.788°
RAAN
336.0573°
Arg. of periapsis
47.7022°
True anomaly
Unknown
Mean anomaly
312.4522°
Eccentric anomaly
Unknown
Mean motion
3.53264 °/min
Orbital period
101.91 mins
BSTAR
-0.00013394
Loading maneuver chart data...
Loading SW <> Apogee altitude chart data...
Loading historical data...
Loading historical data...
Loading historical data...
Loading historical data...
Loading historical data...
Loading historical data...
Loading historical data...

COSMOS 2237 Visibility forecast

Observer location: undefined°, undefined°

Span
Click to sort rows by Start time (UTC) header in descending order
Start Az.
Max El. time (UTC)
Max El. Az.
Max El.
End time (UTC)
End Az.
5 mins2025-07-01 10:17:37.899Z126.026° SE2025-07-01 10:19:37.899Z103.254° ESE15.091°2025-07-01 10:22:37.899Z68.751° E
9 mins2025-07-01 11:59:37.899Z215.543° SW2025-07-01 12:03:37.899Z295.884° NW42.772°2025-07-01 12:08:37.899Z17.335° NNE
9 mins2025-07-01 20:55:37.899Z353.09° N2025-07-01 20:59:37.899Z78.181° E38.387°2025-07-01 21:04:37.899Z139.372° SSE
6 mins2025-07-01 22:40:37.899Z291.065° WNW2025-07-01 22:42:37.899Z265.554° W19.18°2025-07-01 22:46:37.899Z217.04° SW
|